Showing default

LEMUR 2 LLOYD, 60577

Orbit data source: Space-Track

LEMUR 2 LLOYD, 60577 is an American payload satellite in SSO that was launched on Fri, 16 Aug 2024 UTC via an FALCON 9 launch vehicle from the Air Force Western Test Range (AFWTR). Payload-class satellites include a variety of spacecraft equipped with specific instruments for various scientific and technological missions. These include communications satellites like Starlink; space stations such as the ISS; scientific satellites like the Hubble; Earth observation satellites from companies like Planet Labs, Umbra, and HawkEye 360; GPS; miniature CubeSats for education and research; and military/defense satellites.

Loading next visibility...
Identifier
60577, 2024-149DP
Orbit
SSO
Country
Flag of USUS
Related business
Manufacturer
Spire/Glasgow
Mission
Operational Commercial Com/MetRO
Bus & Motor
CUBESAT 3U, Unknown motor
Mass
7.6 kg wet, 7.6 kg dry
Launch date (UTC)
2024-08-16 (2 years ago)
Launch vehicle
FALCON 9
Launch site
Air Force Western Test Range (AFWTR)
Object type
Payload
Rocket body
Debris
Shape & HBR
Box + 2 Pan, 0.5 m
Radar Cross Section
0.063 m², Medium (>0.1 m² and < 1m²)

Expand to show TLE details & history
Last TLE update: 15 hours ago

TLE from 15 hours ago
0 LEMUR 2 LLOYD
1 60577U 24149DP  26171.22464490  .00008514  00000-0  53795-3 0  9993
2 60577  97.6744 252.3554 0005125 131.3141 228.8530 15.09289702100852
Epoch: 2026-06-20T05:23Z
TLE epoch observation values (Epoch: 2026-06-20T05:23:29.319Z)
Latitude
0.00005°
Longitude
-96.9591°
Altitude
543.771 km
Speed
7.589 km/s
True Right ascension
16h 49m 25s
True Declination
0° 00' 00"
Sunlit
Object was in full shadow at epoch
Visualization orbit readout
Latitude
Unknown
Longitude
Unknown
Altitude
Unknown
Speed
Unknown
Apparent Right ascension
Unknown
Apparent Declination
Unknown
Sunlit
N/A
Visualization observer readout
Local Sidereal Time
07:19:28
Azimuth
Unknown
Elevation
Unknown
Doppler factor
Unknown
Orbital elements
Apogee altitude
538.904 km
Perigee altitude
531.818 km
Semi-major axis
6,913.498 km
Eccentricity
0.00051
Inclination
97.6744°
RAAN
252.3554°
Arg. of periapsis
131.3141°
True anomaly
228.80879°
Mean anomaly
228.853°
Eccentric anomaly
228.8309°
Mean motion
3.77569 °/min
Orbital period
95.35 mins
BSTAR
0.00053795
Loading maneuver chart data...
Computing Atmospheric mass density...
Loading historical data...
Loading historical data...
Loading historical data...
Loading historical data...
Loading historical data...
Loading historical data...
Loading historical data...

Documentation

Showing up to 5 results
|